DLH204 EDDN-EDLW

Flight info

Callsign DLH204
Flight time N/A
Altitude 24000
Route SULUS1C/10 SULUS L604 MASEK Z52 ARPEG Z850 ADEMI ADEMI2A
Aircraft A320/M-SDE3FGHIRWY/LB1

Departure

Time 2026-04-29 16:26
Airport Nuremberg Airport (EDDN)

Arrival

Time N/A
Airport Dortmund Airport (EDLW)
Time Latitude Longitude Altitude Speed Heading
2026-04-29 15:48 49.49515 11.07791 1029 ft 0 kts 188°
2026-04-29 16:16 49.49523 11.07792 1027 ft 3 kts 189°
2026-04-29 16:16 49.49542 11.07799 1029 ft 3 kts 200°
2026-04-29 16:16 49.49560 11.07812 1029 ft 3 kts 216°
2026-04-29 16:17 49.49573 11.07829 1027 ft 1 kts 231°
2026-04-29 16:17 49.49575 11.07832 1027 ft 0 kts 232°
2026-04-29 16:21 49.49574 11.07832 1027 ft 0 kts 229°
2026-04-29 16:21 49.49576 11.07770 1029 ft 2 kts 284°
2026-04-29 16:21 49.49582 11.07739 1028 ft 0 kts 287°
2026-04-29 16:22 49.49604 11.07742 1028 ft 10 kts 11°
2026-04-29 16:22 49.49690 11.07639 1027 ft 27 kts 265°
2026-04-29 16:22 49.49733 11.07255 1024 ft 39 kts 279°
2026-04-29 16:22 49.49761 11.06954 1022 ft 25 kts 277°
2026-04-29 16:23 49.49786 11.06683 1021 ft 27 kts 278°
2026-04-29 16:23 49.49815 11.06395 1021 ft 28 kts 279°
2026-04-29 16:23 49.49846 11.06107 1025 ft 26 kts 278°
2026-04-29 16:23 49.49934 11.05954 1027 ft 12 kts 338°
2026-04-29 16:24 49.49938 11.05952 1028 ft 0 kts 338°
2026-04-29 16:24 49.49939 11.05951 1028 ft 1 kts 338°
2026-04-29 16:24 49.50034 11.05979 1027 ft 25 kts 54°
2026-04-29 16:24 49.50041 11.06067 1030 ft 0 kts 98°
2026-04-29 16:25 49.50033 11.06170 1027 ft 39 kts 97°
2026-04-29 16:25 49.49959 11.06988 1021 ft 111 kts 98°
2026-04-29 16:25 49.49849 11.08443 1103 ft 155 kts 91°
2026-04-29 16:26 49.49717 11.10026 1768 ft 153 kts 94°
2026-04-29 16:26 49.49567 11.11678 2464 ft 159 kts 96°
2026-04-29 16:26 49.49379 11.13468 2880 ft 181 kts 97°
2026-04-29 16:26 49.49167 11.15497 3258 ft 203 kts 95°
2026-04-29 16:27 49.49224 11.17743 3718 ft 219 kts 75°
2026-04-29 16:27 49.49840 11.19976 4297 ft 238 kts 57°
2026-04-29 16:27 49.51032 11.21835 5152 ft 249 kts 40°
2026-04-29 16:27 49.52405 11.23502 6127 ft 253 kts 40°
2026-04-29 16:28 49.53793 11.25195 7088 ft 256 kts 40°
2026-04-29 16:28 49.55198 11.26912 8006 ft 260 kts 40°
2026-04-29 16:28 49.56637 11.28653 8933 ft 265 kts 36°
2026-04-29 16:28 49.58294 11.29915 9853 ft 269 kts 17°
2026-04-29 16:29 49.60164 11.30285 10651 ft 280 kts 359°
2026-04-29 16:29 49.62141 11.29602 10941 ft 307 kts 338°
2026-04-29 16:29 49.64101 11.27991 11309 ft 327 kts 333°
2026-04-29 16:29 49.66111 11.26269 12081 ft 332 kts 333°
2026-04-29 16:30 49.68141 11.24531 12901 ft 335 kts 333°
2026-04-29 16:30 49.70191 11.22781 13769 ft 337 kts 333°